• In Uzbekistan
  • List of Countries
  • For 7 days
  • Water Temperature
  • Satellite Maps
  • Weather Map
  • Weather Widgets
  • user-avatar
    Login

    Hourly Weather San Luis

    Today, 22 January, Sunday

    Time Temperature Precipitation Wind Pressure Humidity
    00:00 +29°C° 0 mm 4 mps 697 mmHg 27%
    01:00 +29°C° 0 mm 4 mps 697 mmHg 27%
    02:00 +29°C° 0 mm 5 mps 697 mmHg 29%
    03:00 +28°C° 0 mm 5 mps 697 mmHg 30%
    04:00 +28°C° 0 mm 5 mps 697 mmHg 32%
    05:00 +28°C° 0 mm 6 mps 697 mmHg 34%
    06:00 +29°C° 0 mm 7 mps 698 mmHg 34%
    07:00 +31°C° 0 mm 8 mps 698 mmHg 34%
    08:00 +32°C° 0 mm 9 mps 698 mmHg 33%
    09:00 +34°C° 0 mm 8 mps 698 mmHg 30%
    10:00 +35°C° 0 mm 7 mps 699 mmHg 28%
    11:00 +38°C° 0 mm 6 mps 699 mmHg 25%
    12:00 +39°C° 0 mm 5 mps 698 mmHg 23%
    13:00 +40°C° 0 mm 5 mps 698 mmHg 21%
    14:00 +40°C° 0 mm 4 mps 698 mmHg 18%
    15:00 +40°C° 0 mm 4 mps 697 mmHg 18%
    16:00 +40°C° 0 mm 4 mps 697 mmHg 19%
    17:00 +39°C° 0 mm 3 mps 696 mmHg 19%
    18:00 +37°C° 0 mm 3 mps 696 mmHg 21%
    19:00 +35°C° 0 mm 3 mps 696 mmHg 23%
    20:00 +33°C° 0 mm 3 mps 695 mmHg 25%
    21:00 +32°C° 0.1 mm 4 mps 696 mmHg 27%
    22:00 +30°C° 0.1 mm 4 mps 697 mmHg 29%
    23:00 +30°C° 0.1 mm 5 mps 698 mmHg 31%

    Tomorrow, 23 January, Monday

    Time Temperature Precipitation Wind Pressure Humidity
    00:00 +28°C° 0.5 mm 5 mps 698 mmHg 43%
    01:00 +27°C° 0.5 mm 5 mps 698 mmHg 54%
    02:00 +25°C° 0.5 mm 5 mps 698 mmHg 66%
    03:00 +25°C° 0 mm 4 mps 698 mmHg 66%
    04:00 +25°C° 0 mm 3 mps 698 mmHg 65%
    05:00 +25°C° 0 mm 2 mps 698 mmHg 65%
    06:00 +26°C° 0.1 mm 3 mps 698 mmHg 58%
    07:00 +27°C° 0.1 mm 4 mps 698 mmHg 51%
    08:00 +28°C° 0.1 mm 5 mps 699 mmHg 44%
    09:00 +30°C° 0.1 mm 5 mps 699 mmHg 38%
    10:00 +33°C° 0.1 mm 5 mps 699 mmHg 33%
    11:00 +34°C° 0.1 mm 5 mps 699 mmHg 28%
    12:00 +35°C° 0 mm 4 mps 698 mmHg 25%
    13:00 +36°C° 0 mm 4 mps 698 mmHg 23%
    14:00 +37°C° 0 mm 3 mps 697 mmHg 21%
    15:00 +38°C° 0 mm 4 mps 696 mmHg 21%
    16:00 +38°C° 0 mm 4 mps 696 mmHg 20%
    17:00 +38°C° 0 mm 4 mps 695 mmHg 19%
    18:00 +36°C° 0 mm 4 mps 695 mmHg 22%
    19:00 +34°C° 0 mm 3 mps 694 mmHg 25%
    20:00 +31°C° 0 mm 3 mps 694 mmHg 27%
    21:00 +30°C° 0 mm 3 mps 694 mmHg 28%
    22:00 +30°C° 0 mm 4 mps 694 mmHg 29%
    23:00 +29°C° 0 mm 4 mps 695 mmHg 30%

    Day after tomorrow, 24 January, Tuesday

    Time Temperature Precipitation Wind Pressure Humidity
    00:00 +28°C° 0 mm 4 mps 695 mmHg 31%
    01:00 +28°C° 0 mm 4 mps 695 mmHg 33%
    02:00 +27°C° 0 mm 4 mps 695 mmHg 35%
    03:00 +26°C° 0.1 mm 5 mps 695 mmHg 42%
    04:00 +24°C° 0.1 mm 6 mps 696 mmHg 48%
    05:00 +23°C° 0.1 mm 6 mps 696 mmHg 55%
    06:00 +23°C° 0 mm 7 mps 697 mmHg 50%
    07:00 +23°C° 0 mm 7 mps 698 mmHg 45%
    08:00 +23°C° 0 mm 7 mps 699 mmHg 41%
    09:00 +24°C° 0 mm 7 mps 700 mmHg 36%
    10:00 +27°C° 0 mm 7 mps 700 mmHg 31%
    11:00 +29°C° 0 mm 7 mps 701 mmHg 26%
    12:00 +30°C° 0 mm 7 mps 701 mmHg 24%
    13:00 +32°C° 0 mm 7 mps 700 mmHg 22%
    14:00 +33°C° 0 mm 7 mps 700 mmHg 21%
    15:00 +33°C° 0 mm 7 mps 700 mmHg 21%
    16:00 +33°C° 0 mm 7 mps 700 mmHg 21%
    17:00 +32°C° 0 mm 7 mps 699 mmHg 21%
    18:00 +29°C° 0 mm 6 mps 699 mmHg 24%
    19:00 +28°C° 0 mm 5 mps 700 mmHg 26%
    20:00 +26°C° 0 mm 4 mps 700 mmHg 29%
    21:00 +25°C° 0 mm 4 mps 700 mmHg 31%
    22:00 +23°C° 0 mm 4 mps 701 mmHg 32%
    23:00 +22°C° 0 mm 3 mps 701 mmHg 34%

    25 January, Wednesday

    Time Temperature Precipitation Wind Pressure Humidity
    00:00 +21°C° 0 mm 3 mps 701 mmHg 35%
    01:00 +21°C° 0 mm 4 mps 701 mmHg 36%
    02:00 +20°C° 0 mm 4 mps 701 mmHg 37%
    03:00 +20°C° 0 mm 4 mps 701 mmHg 37%
    04:00 +19°C° 0 mm 4 mps 701 mmHg 37%
    05:00 +19°C° 0 mm 4 mps 701 mmHg 37%
    06:00 +21°C° 0 mm 4 mps 702 mmHg 34%
    07:00 +24°C° 0 mm 3 mps 703 mmHg 30%
    08:00 +25°C° 0 mm 3 mps 703 mmHg 27%
    09:00 +27°C° 0 mm 3 mps 704 mmHg 24%
    10:00 +29°C° 0 mm 4 mps 704 mmHg 21%
    11:00 +32°C° 0 mm 4 mps 704 mmHg 17%
    12:00 +31°C° 0 mm 3 mps 703 mmHg 16%
    13:00 +33°C° 0 mm 3 mps 703 mmHg 16%
    14:00 +34°C° 0 mm 3 mps 702 mmHg 15%
    15:00 +34°C° 0 mm 3 mps 702 mmHg 15%
    16:00 +35°C° 0 mm 3 mps 701 mmHg 15%
    17:00 +35°C° 0 mm 3 mps 701 mmHg 15%
    18:00 +33°C° 0 mm 4 mps 700 mmHg 18%
    19:00 +30°C° 0 mm 4 mps 700 mmHg 20%
    20:00 +27°C° 0 mm 4 mps 700 mmHg 23%
    21:00 +27°C° 0 mm 4 mps 700 mmHg 25%
    22:00 +26°C° 0 mm 5 mps 701 mmHg 26%
    23:00 +25°C° 0 mm 5 mps 701 mmHg 27%

    26 January, Thursday

    Time Temperature Precipitation Wind Pressure Humidity
    00:00 +23°C° 0 mm 4 mps 701 mmHg 28%
    01:00 +23°C° 0 mm 4 mps 701 mmHg 28%
    02:00 +24°C° 0 mm 3 mps 700 mmHg 29%
    03:00 +23°C° 0 mm 4 mps 700 mmHg 29%
    04:00 +22°C° 0 mm 4 mps 700 mmHg 29%
    05:00 +22°C° 0 mm 4 mps 700 mmHg 29%
    06:00 +25°C° 0 mm 5 mps 701 mmHg 27%
    07:00 +27°C° 0 mm 5 mps 701 mmHg 26%
    08:00 +28°C° 0 mm 6 mps 702 mmHg 24%
    09:00 +30°C° 0 mm 5 mps 702 mmHg 22%
    10:00 +33°C° 0 mm 5 mps 702 mmHg 19%
    11:00 +35°C° 0 mm 4 mps 703 mmHg 17%
    12:00 +36°C° 0 mm 4 mps 702 mmHg 16%
    13:00 +37°C° 0 mm 4 mps 702 mmHg 15%
    14:00 +38°C° 0 mm 3 mps 701 mmHg 15%
    15:00 +38°C° 0 mm 3 mps 701 mmHg 14%
    16:00 +38°C° 0 mm 3 mps 700 mmHg 14%
    17:00 +38°C° 0 mm 3 mps 700 mmHg 14%
    18:00 +36°C° 0 mm 3 mps 700 mmHg 17%
    19:00 +33°C° 0 mm 3 mps 699 mmHg 20%
    20:00 +30°C° 0 mm 3 mps 699 mmHg 23%
    21:00 +29°C° 0 mm 4 mps 700 mmHg 23%
    22:00 +28°C° 0 mm 4 mps 700 mmHg 24%
    23:00 +28°C° 0 mm 4 mps 700 mmHg 24%

    27 January, Friday

    Time Temperature Precipitation Wind Pressure Humidity
    00:00 +27°C° 0 mm 5 mps 700 mmHg 25%
    01:00 +27°C° 0 mm 5 mps 700 mmHg 25%
    02:00 +27°C° 0 mm 6 mps 699 mmHg 25%
    03:00 +27°C° 0 mm 7 mps 699 mmHg 25%
    04:00 +26°C° 0 mm 7 mps 699 mmHg 25%
    05:00 +26°C° 0 mm 8 mps 699 mmHg 25%
    06:00 +27°C° 0 mm 8 mps 700 mmHg 24%
    07:00 +28°C° 0 mm 9 mps 700 mmHg 23%
    08:00 +31°C° 0 mm 9 mps 700 mmHg 22%
    09:00 +32°C° 0 mm 9 mps 700 mmHg 20%
    10:00 +34°C° 0 mm 9 mps 700 mmHg 18%
    11:00 +37°C° 0 mm 9 mps 700 mmHg 16%
    12:00 +38°C° 0 mm 9 mps 700 mmHg 15%
    13:00 +39°C° 0 mm 9 mps 699 mmHg 14%
    14:00 +40°C° 0 mm 9 mps 699 mmHg 13%
    15:00 +40°C° 0 mm 9 mps 698 mmHg 12%
    16:00 +40°C° 0 mm 9 mps 698 mmHg 12%
    17:00 +40°C° 0 mm 9 mps 697 mmHg 12%
    18:00 +37°C° 0 mm 8 mps 697 mmHg 14%
    19:00 +34°C° 0 mm 6 mps 697 mmHg 16%
    20:00 +30°C° 0 mm 5 mps 697 mmHg 19%
    21:00 +30°C° 0 mm 6 mps 697 mmHg 19%
    22:00 +29°C° 0 mm 7 mps 698 mmHg 19%
    23:00 +29°C° 0 mm 7 mps 698 mmHg 20%
    Show more